STARLINK-32786, 62528

Orbit data source: Space-Track

STARLINK-32786, 62528 is a payload satellite owned by SpaceX/Seattle (US) in LEO that was launched on Wed, 08 Jan 2025 UTC via an FALCON 9 launch vehicle from the Air Force Eastern Test Range (AFETR). Payloads include a variety of satellites, spacecraft, and rockets equipped with specific instruments for various scientific and technological missions. These include communications satellites like Starlink; space stations such as the ISS; scientific satellites like the Hubble; Earth observation satellites from companies like Planet Labs, Umbra, and HawkEye 360; GPS; miniature CubeSats for education and research; and military/defense satellites.

Loading next visibility...
STARLINK-32786 details
Identifier
62528, 2025-004T
Orbit
LEO
Last TLE update16 hours ago
Origin
Flag of USSpaceX/Seattle (US)
ManufacturerSpaceX/Seattle
MissionOperational spacecraft
Bus & MotorSTARLINK V2M, Unknown motor
Mass730 kg wet, ~700 kg dry
Launch date (UTC)
2025-01-08 (1 month ago)
Launch vehicle
FALCON 9
Launch site
Air Force Eastern Test Range (AFETR)
Object type
Payload
Rocket body
Debris
Shape & HBRUnknown
Radar Cross SectionLarge (>1 m²)

Expand to show TLE details & history

TLE from 16 hours ago
0 STARLINK-32786
1 62528U 25004T   25046.85965453  .00000209  00000-0  12263-4 0  9995
2 62528  42.9985 248.3284 0001206 287.2315  72.8409 15.40693730  6307
Epoch: 2025-02-15T20:37Z
Definitive object data (Epoch: 2025-02-15T20:37:54.151Z)
Latitude-0.00004°
Longitude152.75171°
Altitude443.592 km
Speed7.648 km/s
True Right ascension16h 33m 18s
True Declination0° 00' 00"
Sunlit
Object was in daylight at TLE epoch
Visualization TLE readout
Latitude10.41259°
Longitude160.30087°
Altitude442.99 km
Speed7.649 km/s
Apparent Right ascension20h 03m 15s
Apparent Declination-39° 02' 02"
Sunlit
Object is in daylight
Visualization observer readout
Local Sidereal Time15:01:53
Azimuth129.028° SE
Elevation-14.676°
Doppler factor1
Orbital elements
Apogee altitude446.84 km
Perigee altitude445.194 km
Semi-major axis6,824.154 km
Eccentricity0.0001206
Inclination42.9985°
RAAN248.3284°
Arg. of periapsis287.2315°
True anomaly72.85411°
Mean anomaly72.8409°
Eccentric anomaly72.8475°
Mean motion3.85008 °/min
BSTAR0.000012263
Orbital period93.5 mins
Loading maneuver chart data...
Loading historical data...
Loading historical data...
Loading historical data...
Loading historical data...
Loading historical data...
Loading historical data...
Loading historical data...

STARLINK-32786 Visibility forecast

Observer location: undefined°, undefined

Span
Click to sort rows by Start time (UTC) header in descending order
Start Az.
Max El. time (UTC)
Max El. Az.
Max El.
End time (UTC)
End Az.
5 mins2025-02-16 17:06:23.843Z227.36° WSW2025-02-16 17:08:23.843Z131.793° SE40.113°2025-02-16 17:11:23.843Z76.555° E
5 mins2025-02-16 18:44:23.843Z284.488° WNW2025-02-16 18:46:23.843Z3.204° NNE38.536°2025-02-16 18:49:23.843Z70.483° E
5 mins2025-02-16 20:22:23.843Z294.915° NW2025-02-16 20:24:23.843Z351.648° N40.701°2025-02-16 20:27:23.843Z90.32° ESE
5 mins2025-02-16 22:00:23.843Z271.259° WNW2025-02-16 22:02:23.843Z218.84° SW33.309°2025-02-16 22:05:23.843Z139.289° SSE
|